1372032028872,62.5987
1372032088872,62.5132
1372032148872,62.5167
1372032208872,62.7069
1372032268872,62.5698
1372032328872,62.6035
1372032388872,62.4615
1372032448872,62.6396
1372032508872,62.5516
1372032568872,62.7599
1372032628872,62.5245
1372032688872,62.5257
1372032748872,62.4961
1372032808872,62.5166
1372032868872,62.5818
1372032928872,62.5458
1372032988872,62.6622
1372033048872,62.7080
1372033108872,62.5938
1372033168872,62.6315
1372033228872,62.6694
1372033288872,62.6682
1372033348872,62.5360
1372033408872,62.6217
1372033468872,62.6648
1372033528872,62.5128
1372033588872,62.6708
1372033648872,62.6545
1372033708872,62.5753
1372033768872,62.5848
1372033828872,62.5952
1372033888872,62.8445
1372033948872,62.6059
1372034008872,62.6072
1372034068872,62.7288
1372034128872,62.6818
1372034188872,62.5097
1372034248872,62.6016
1372034308872,62.6471
1372034368872,62.6463
1372034428872,62.6618
1372034488872,62.7566
1372034548872,62.4089
1372034608872,62.7133
1372034668872,62.6376
1372034728872,62.5537
1372034788872,62.6737
1372034848872,62.6919
1372034908872,62.7174
1372034968872,62.7526
1372035028872,62.5034
1372035088872,62.3918
1372035148872,62.5284
1372035208872,62.4552
1372035268872,62.6437
1372035328872,62.5818
1372035388872,62.7089
1372035448872,62.5459
1372035508872,62.6551
1372035568872,62.8242
1372035628882,62.5718
1372035688882,62.5983
1372035748882,62.5195
1372035808882,62.6318
1372035868882,62.5809
1372035928882,62.5472
1372035988882,62.6431
1372036048882,62.6470
1372036108882,62.5045
1372036168882,62.5576
1372036228882,62.5587
1372036288882,62.3587
1372036828882,62.5227
1372036888882,62.3727
1372036948882,62.4081
1372037008882,62.3409
1372037068882,62.5600
1372037128882,62.4484
1372037188882,62.5951
1372037248882,62.3298
1372037308882,62.5340
1372037368882,62.5448
1372037428882,62.6006
1372037488882,62.5670
1372037548882,62.3133
1372037608882,62.5045
1372037668882,62.4355
1372037728882,62.5587
1372037788882,62.6577
1372037848882,62.4896
1372037908882,62.6141
1372037968882,62.5713
1372038028882,62.3433
1372038088882,62.3696
1372038148882,62.3316
1372038208882,62.3997
1372038268882,62.5039
1372038328882,62.5578
1372038388882,62.4901
1372038448882,62.4002
1372038508882,62.2874
1372038568882,62.3673
1372038628882,62.5273
1372038688882,62.3948
1372038748882,62.2531
1372038808882,62.4692
1372038868882,62.3227
1372038928882,62.4877
1372038988882,62.5193
1372039048882,62.3905
1372039108882,62.3685
1372039168882,62.3428
1372039228892,62.3504
1372039288892,62.4276
1372039348892,62.3724
1372039408892,62.2960
1372039468892,62.2814
1372039528892,62.4501
1372039588892,62.2492
1372039648892,62.5087
1372039708892,62.6844
1372039768892,62.4552
1372039828892,62.6387
1372039888892,62.5562
1372039948892,62.5869
1372040008892,62.5619
1372040068892,62.6133
1372040128892,62.6170
1372040188892,62.6545
1372040248892,62.5933
1372040308892,62.5467
1372040368892,62.4050
1372040428892,62.5540
1372040488892,62.5345
1372040548892,62.4900
1372040608892,62.7309
1372040668892,62.5464
1372040728892,62.5087
1372040788892,62.6260
1372040848892,62.7534
1372040908892,62.5783
1372040968892,62.5970
1372041028892,62.6144
1372041088892,62.6522
1372041148892,62.5400
1372041208892,62.5589
1372041268892,62.6422
1372041328892,62.5824
1372041388892,62.6245
1372041448892,62.5945
1372041508892,62.7553
1372041568892,62.6595
1372041628892,62.4519
1372041688892,62.4894
1372041748892,62.5405
1372041808892,62.4799
1372041868892,62.6116
1372041928892,62.5356
1372041988892,62.4524
1372042048892,62.6235
1372042108892,62.6124
1372042168892,62.4948
1372042228892,62.4382
1372042288892,62.9799
1372042348892,62.7417
1372042408892,62.5414
1372042468892,62.6157
1372042528892,62.5424
1372042588892,62.7244
1372042648892,62.4775
1372042708892,62.5413
1372042768892,62.4734
1372042828901,62.4613
1372042888901,62.5468
1372042948901,62.4907
1372043008901,62.5981
1372043068901,62.5594
1372043128901,62.5450
1372043188901,62.5810
1372043248901,62.4666
1372043308901,62.5546
1372043368901,62.5403
1372043428901,62.4677
1372043488901,62.4775
1372043548901,62.5986
1372043608901,62.4858
1372043668901,62.5220
1372043728901,62.5430
1372043788901,62.5195
1372043848901,62.5074
1372043908901,62.6146
1372043968901,62.2997
1372044028901,62.6297
1372044088901,62.4670
1372044148901,62.4275
1372044208901,62.4965
1372044268901,62.4966
1372044328901,62.5969
1372044388901,62.4860
1372044448901,62.5727
1372044508901,62.5426
1372044568901,62.5880
1372044628901,62.5051
1372044688901,62.7433
1372044748901,62.5788
1372044808901,62.4847
1372044868901,62.4165
1372044928901,62.5426
1372044988901,62.5227
1372045048901,62.3090
1372045108901,62.5489
1372045168901,62.4531
1372045228901,62.2588
1372045288901,62.4454
1372045348901,62.3897
1372045408901,62.3824
1372045468901,62.5436
1372045528901,62.5157
1372045588901,62.5361
1372045648901,62.4992
1372045708901,62.3906
1372045768901,62.4961
1372045828901,62.4606
1372045888901,62.3170
1372045948901,62.2438
1372046008901,62.4532
1372046068901,62.3773
1372046128901,62.3143
1372046188901,62.4493
1372046248901,62.5886
1372046308901,62.4620
1372046368901,62.3922
1372046428910,62.3853
1372046488910,62.3402
1372046548910,62.3825
1372046608910,62.2465
1372046668910,62.4561
1372046728910,62.3158
1372046788910,62.3485
1372046848910,62.3244
1372046908910,62.1973
1372046968910,62.1801
1372047028910,62.3754
1372047088910,62.2187
1372047148910,62.0572
1372047208910,62.2369
1372047268910,62.1431
1372047328910,62.2557
1372047388910,62.2280
1372047448910,62.0414
1372047508910,62.0798
1372047568910,62.3225
1372047628910,62.0801
1372047688910,62.2160
1372047748910,62.3301
1372047808910,62.1819
1372047868910,62.2460
1372047928910,62.1578
1372047988910,62.1465
1372048048910,62.2570
1372048108910,62.2152
1372048168910,61.9331
1372048228910,62.3817
1372048288910,62.0723
1372048348910,61.9888
1372048408910,62.0347
1372048468910,62.1676
1372048528910,62.2762
1372048588910,62.0384
1372048648910,62.0716
1372048708910,62.2468
1372048768910,62.2164
1372048828910,62.2595
1372048888910,62.3711
1372048948910,62.2045
1372049008910,62.1330
1372049068910,62.1872
1372049128910,62.2927
1372049188910,62.2842
1372049248910,62.2095
1372049308910,62.1083
1372049368910,62.2541
1372049428910,62.0613
1372049488910,62.1744
1372049548910,62.1672
1372049608910,62.1860
1372049668910,62.2911
1372049728910,62.1921
1372049788910,62.2073
1372049848910,62.2080
1372049908910,62.1154
1372049968910,62.0514
1372050028920,62.1501
1372050088920,62.0967
1372050148920,62.0900
1372050208920,62.0331
1372050268920,62.0136
1372050328920,61.8896
1372050388920,62.2239
1372050448920,62.0636
1372050508920,61.9364
1372050568920,62.0200
1372050628919,61.8796
1372050688919,61.8436
1372050748919,61.9908
1372050808920,61.9926
1372050868920,62.0079
1372050928920,62.0192
1372050988920,62.1352
1372051048920,62.1006
1372051108920,62.2236
1372051168920,62.1490
1372051228920,61.9230
1372051288920,62.0602
1372051348920,61.9673
1372051408920,61.9674
1372051468920,62.2522
1372051528920,62.1949
1372051588920,62.2843
1372051648920,62.2639
1372051708920,62.2082
1372051768920,62.0701
1372051828920,62.0643
1372051888920,62.1453
1372051948919,62.1362
1372052008919,62.1635
1372052068919,62.0929
1372052128919,61.9679
1372052188920,62.1296
1372052248920,62.0107
1372052308920,62.0404
1372052368920,62.0904
1372052428920,62.1575
1372052488920,62.1408
1372052548920,62.1061
1372052608920,62.1157
1372052668920,62.1480
1372052728920,61.9201
1372052788920,62.2870
1372052848920,62.2526
1372052908920,62.0474
1372052968920,61.9604
1372053028920,61.9811
1372053088920,62.1402
1372053148920,62.2937
1372053208920,62.2701
1372053268920,62.2292
1372053328919,62.1868
1372053388919,62.1081
1372053448919,62.0601
1372053508920,61.9310
1372053568920,62.1549
1372053628928,62.0269
1372053688928,62.0539
1372053748928,62.0473
1372053808928,62.0910
1372053868928,62.0654
1372053928928,62.1149
1372053988928,61.8308
1372054048928,62.1109
1372054108928,62.0755
1372054168928,62.0131
1372054228928,61.9433
1372054288928,61.9422
1372054348928,62.0490
1372054408928,62.0806
1372054468928,61.9044
1372054528928,61.8086
1372054588928,61.9967
1372054648928,62.0396
1372054708928,62.0334
1372054768928,61.8145
1372054828928,61.9186
1372054888928,61.9708
1372054948928,61.9799
1372055008928,61.8829
1372055068928,61.9160
1372055128928,62.0254
1372055188928,62.7050
1372055248928,61.9009
1372055308928,61.9710
1372055368928,62.0231
1372055428928,61.8867
1372055488928,61.7945
1372055548928,61.8611
1372055608928,61.8860
1372055668928,61.8500
1372055728928,61.8928
1372055788928,61.9473
1372055848928,62.0161
1372055908928,61.9674
1372055968928,61.8216
1372056028928,61.8620
1372056088928,62.0585
1372056148928,61.9972
1372056208928,61.7977
1372056268928,61.8956
1372056328928,62.0151
1372056388928,61.9061
1372056448928,61.9177
1372056508928,62.0143
1372056568928,61.8328
1372056628928,61.6946
1372056688928,61.7894
1372056748928,61.7117
1372056808928,61.8996
1372056868928,61.7093
1372056928928,61.7654
1372056988928,61.8023
1372057048928,61.8615
1372057108928,61.7448
1372057168928,61.6868
1372057228937,61.7602
1372057288937,61.8604
1372057348937,61.8046
1372057408937,61.8587
1372057468937,61.7741
1372057528937,61.7426
1372057588937,61.7497
1372057648937,61.9140
1372057708937,61.6221
1372057768937,61.9836
1372057828937,61.6023
1372057888937,61.6147
1372057948937,61.8663
1372058008937,61.5413
1372058068937,61.7762
1372058128937,61.7037
1372058188937,61.8334
1372058248937,61.9321
1372058308937,61.7802
1372058368937,61.6420
1372058428937,61.7137
1372058488937,61.9137
1372058548937,61.7980
1372058608937,61.7542
1372058668937,61.6368
1372058728937,61.7772
1372058788937,61.6836
1372058848937,61.8168
1372058908937,61.7509
1372058968937,61.6567
1372059028937,61.8036
1372059088937,61.7981
1372059148937,61.7440
1372059208937,61.7824
1372059268937,61.7867
1372059328937,61.7006
1372059388937,61.7345
1372059448937,61.7379
1372059508937,61.9268
1372059568937,61.8548
1372059628937,61.8376
1372059688937,62.0243
1372059748937,61.9188
1372059808937,62.0933
1372059868937,61.8691
1372059928937,62.0084
1372059988937,62.0230
1372060048937,61.7298
1372060108937,61.9544
1372060168937,62.0191
1372060228937,61.9725
1372060288937,61.8926
1372060348937,61.8631
1372060408937,61.9035
1372060468937,61.8846
1372060528937,61.8839
1372060588937,61.8909
1372060648937,61.8895
1372060708937,61.7645
1372060768937,61.8933
1372060828946,61.9473
1372060888946,62.0211
1372060948946,62.0080
1372061008946,62.0721
1372061068946,62.0271
1372061128946,61.7267
1372061188946,61.9414
1372061248946,62.0477
1372061308946,62.0219
1372061368946,61.8554
1372061428946,61.9785
1372061488946,62.0412
1372061548946,61.9451
1372061608946,61.8242
1372061668946,62.1346
1372061728946,62.0711
1372061788946,62.2345
1372061848946,62.1373
1372061908946,61.9747
1372061968946,61.9431
1372062028946,62.1122
1372062088946,62.2404
1372062148946,62.0712
1372062208946,62.1731
1372062268946,62.0860
1372062328946,62.1910
1372062388946,62.2633
1372062448946,62.2324
1372062508946,62.1326
1372062568946,62.2147
1372062628946,62.1760
1372062688946,62.1257
1372062748946,62.1949
1372062808946,62.2364
1372062868946,62.1490
1372062928946,62.0625
1372062988946,62.0872
1372063048946,61.8928
1372063108946,62.1097
1372063168946,62.1247
1372063228946,62.2820
1372063288946,62.2038
1372063348946,62.1229
1372063408946,62.2040
1372063468946,62.1481
1372063528946,62.0428
1372063588946,62.1488
1372063648946,61.9169
1372063708946,61.9914
1372063768946,62.2277
1372063828946,62.0341
1372063888946,62.1520
1372063948946,62.1933
1372064008946,62.2055
1372064068946,62.2942
1372064128946,62.3227
1372064188946,62.0849
1372064248946,62.2589
1372064308946,62.4205
1372064368946,62.2918
1372064428955,62.3142
1372064488955,62.4243
1372064548955,62.3607
1372064608955,62.3599
1372064668955,62.3735
1372064728955,62.4917
1372064788955,62.4671
1372064848955,62.4258
1372064908955,62.4840
1372064968955,62.5088
1372065028955,62.4657
1372065088955,62.4903
1372065148955,62.6214
1372065208955,62.6041
1372065268955,62.5302
1372065328955,62.8101
1372065388955,62.5941
1372065448955,62.7423
1372065508955,62.7939
1372065568955,62.7191
1372065628955,62.5251
1372065688955,62.8467
1372065748955,62.7110
1372065808955,62.7544
1372065868955,62.8199
1372065928955,62.9856
1372065988955,62.6884
1372066048955,62.6393
1372066108955,62.5658
1372066168955,62.8370
1372066228955,62.9174
1372066288955,62.9847
1372066348955,62.9625
1372066408955,62.9630
1372066468955,62.8153
1372066528955,62.7089
1372066588955,62.9161
1372066648955,62.8446
1372066708955,63.0492
1372066768955,62.8269
1372066828955,62.9906
1372066888955,62.9238
1372066948955,63.1575
1372067008955,62.8822
1372067068955,62.8581
1372067128955,62.7584
1372067188955,62.9770
1372067248955,62.8415
1372067308955,62.9245
1372067368955,63.0780
1372067428955,62.9389
1372067488955,62.9192
1372067548955,62.8567
1372067608955,63.0704
1372067668955,62.7476
1372067728955,62.8362
1372067788955,62.8010
1372067848955,62.8481
1372067908955,62.8436
1372067968955,62.8352
1372068028964,62.7547
1372068088964,62.9073
1372068148964,63.0031
1372068208964,62.7676
1372068268964,62.9937
1372068328964,62.8648
1372068388964,62.9086
1372068448964,62.9671
1372068508964,62.9861
1372068568964,62.8667
1372068628964,62.8757
1372068688964,63.0406
1372068748964,63.0089
1372068808964,62.9468
1372068868964,63.0046
1372068928964,62.8125
1372068988964,63.1028
1372069048964,62.9026
1372069108964,62.8769
1372069168964,62.9717
1372069228964,62.7824
1372069288964,63.1060
1372069348964,63.0548
1372069408964,63.3409
1372069468964,62.9052
1372069528964,62.9979
1372069588964,62.8502
1372069648964,63.0511
1372069708964,63.0887
1372069768964,63.0889
1372069828964,63.2051
1372069888964,63.0168
1372069948964,63.1428
1372070008964,63.0206
1372070068964,63.1695
1372070128964,63.1728
1372070188964,63.1531
1372070248964,63.2537
1372070308964,63.1806
1372070368964,63.0154
1372070428964,63.0891
1372070488964,63.0294
1372070548964,63.1977
1372070608964,63.1825
1372070668964,63.1349
1372070728964,63.2518
1372070788964,63.4272
1372070848964,63.2163
1372070908964,63.1062
1372070968964,63.1586
1372071028964,63.3311
1372071088964,63.3500
1372071148964,63.3403
1372071208964,63.1161
1372071268964,63.4091
1372071328964,63.2358
1372071388964,63.4400
1372071448964,63.3157
1372071508964,63.2111
1372071568964,63.4133
1372071628973,63.3745
1372071688973,63.3032
1372071748973,63.4726
1372071808973,63.3564
1372071868973,63.4235
1372071928973,63.2319
1372071988973,63.5099
1372072048973,63.2512
1372072108973,63.5167
1372072168973,63.4220
1372072228973,63.3361
1372072288973,63.5344
1372072348973,63.6447
1372072408973,63.3975
1372072468973,63.3123
1372072528973,63.6099
1372072588973,63.4624
1372072648973,63.6241
1372072708973,63.4787
1372072768973,63.3595
1372072828973,63.5580
1372072888973,63.4300
1372072948973,63.6152
1372073008973,63.7230
1372073068973,63.3596
1372073128973,63.5169
1372073188973,63.6369
1372073248973,63.5170
1372073308973,63.3943
1372073368973,63.7530
1372073428973,63.8474
1372073488973,64.2985
1372073548973,64.0693
1372073608973,63.8580
1372073668973,63.9480
1372073728973,63.7787
1372073788973,64.0823
1372073848973,64.1301
1372073908973,64.1000
1372073968973,64.0335
1372074028973,63.6519
1372074088973,63.7673
1372074148973,63.6035
1372074208973,63.4405
1372074268973,63.4678
1372074328973,63.5500
1372074388973,63.3865
1372074448973,63.3838
1372074508973,63.3865
1372074568973,63.4986
1372074628973,63.4155
1372074688973,63.3633
1372074748973,63.2896
1372074808973,63.4588
1372074868973,63.3406
1372074928973,63.3125
1372074988973,63.4585
1372075048973,63.4476
1372075108973,63.5904
1372075168973,63.5622
1372075228982,63.3771
1372075288982,63.4507
1372075348982,63.4869
1372075408982,63.4534
1372075468982,63.5110
1372075528982,63.4429
1372075588981,63.3779
1372075648981,63.5213
1372075708981,63.3845
1372075768981,63.4425
1372075828982,63.5089
1372075888982,63.3302
1372075948982,63.5642
1372076008982,63.5288
1372076068982,63.6484
1372076128982,63.5647
1372076188982,63.5985
1372076248982,63.6408
1372076308982,63.4704
1372076368982,63.6208
1372076428982,63.5570
1372076488982,63.7454
1372076548982,63.6332
1372076608982,63.5481
1372076668982,63.6061
1372076728982,63.7403
1372076788982,63.4533
1372076848982,63.6965
1372076908981,63.6276
1372076968981,63.5650
1372077028981,63.7385
1372077088981,63.7350
1372077148981,63.6086
1372077208982,63.6950
1372077268982,63.6933
1372077328982,63.5447
1372077388982,63.7235
1372077448982,63.4328
1372077508982,63.7317
1372077568982,63.7707
1372077628982,63.4420
1372077688982,63.5064
1372077748982,63.7617
1372077808982,63.6419
1372077868982,63.6787
1372077928982,63.7665
1372077988982,63.7604
1372078048982,63.6878
1372078108982,63.9410
1372078168982,63.6472
1372078228982,63.7851
1372078288981,63.7636
1372078348981,64.0663
1372078408981,63.6417
1372078468981,63.8016
1372078528982,63.5873
1372078588982,63.5387
1372078648982,63.7310
1372078708982,63.6544
1372078768982,63.8140
1372078828990,63.7001
1372078888990,63.8598
1372078948990,63.7641
1372079008990,63.7524
1372079068990,63.6868
1372079128990,63.9305
1372079188990,63.8610
1372079248990,63.7582
1372079308990,63.4358
1372079368990,63.5929
1372079428990,63.4499
1372079488990,63.4701
1372079548990,63.6543
1372079608990,63.5914
1372079668990,63.7257
1372079728990,63.6367
1372079788990,63.7686
1372079848990,63.6406
1372079908990,63.7606
1372079968990,63.4853
1372080028990,63.7891
1372080088990,63.5669
1372080148990,63.7238
1372080208990,63.6277
1372080268990,63.7971
1372080328990,63.6224
1372080388990,63.6683
1372080448990,63.7299
1372080508990,63.5787
1372080568990,63.6488
1372080628990,63.8192
1372080688990,63.6430
1372080748990,63.5325
1372080808990,63.6217
1372080868990,63.7115
1372080928990,63.6589
1372080988990,64.0379
1372081048990,63.6058
1372081108990,63.6748
1372081168990,63.8898
1372081228990,63.5803
1372081288990,63.7636
1372081348990,63.5954
1372081408990,63.6647
1372081468990,63.7436
1372081528990,63.7295
1372081588990,63.7238
1372081648990,63.9205
1372081708990,63.5218
1372081768990,63.7626
1372081828990,63.7904
1372081888990,63.6311
1372081948990,63.7787
1372082008990,63.6627
1372082068990,63.7581
1372082128990,63.6194
1372082188990,63.5361
1372082248990,63.7863
1372082308990,63.5694
1372082368990,63.7233
1372082428999,63.8820
1372082488999,63.7643
1372082548999,63.7788
1372082608999,63.6494
1372082668999,63.6915
1372082728999,63.5739
1372082788999,63.6874
1372082848999,63.9402
1372082908999,63.8366
1372082968999,63.6935
1372083028999,63.7062
1372083088999,63.8232
1372083148999,63.7569
1372083208999,63.6687
1372083268999,63.5683
1372083328999,63.6486
1372083388999,63.6716
1372083448999,63.6850
1372083508999,63.5961
1372083568999,63.5760
1372083628999,63.8601
1372083688999,66.4181
1372083748999,63.6945
1372083808999,63.7776
1372083868999,63.6934
1372083928999,63.7746
1372083988999,63.5494
1372084048999,63.7038
1372084108999,63.3111
1372084168999,63.5684
1372084228999,63.4598
1372084288999,63.5264
1372084348999,63.5933
1372084408999,63.6955
1372084468999,63.6960
1372084528999,63.4850
1372084588999,63.5847
1372084648999,63.4008
1372084708999,63.7325
1372084768999,63.4939
1372084828999,63.5551
1372084888999,63.5805
1372084948999,63.4498
1372085008999,63.5840
1372085068999,63.5886
1372085128999,63.6023
1372085188999,63.7172
1372085248999,63.5535
1372085308999,63.5396
1372085368999,63.5228
1372085428999,63.6290
1372085488999,63.6208
1372085548999,63.4950
1372085608999,63.6232
1372085668999,63.6663
1372085728999,63.5201
1372085788999,63.4900
1372085848999,63.5714
1372085908999,63.4800
1372085968999,63.3417
1372086029008,63.4821
1372086089008,63.4037
1372086149008,63.1949
1372086209008,63.4095
1372086269008,63.5341
1372086329008,63.5128
1372086389008,63.4856
1372086449008,63.4548
1372086509008,63.5840
1372086569008,63.3143
1372086629008,63.3578
1372086689008,63.3306
1372086749008,63.3578
1372086809008,63.2515
1372086869008,63.2262
1372086929008,63.2864
1372086989008,63.0905
1372087049008,63.2638
1372087109008,63.2625
1372087169008,63.1547
1372087229008,63.1978
1372087289008,63.0506
1372087349008,63.1324
1372087409008,62.9879
1372087469008,63.1599
1372087529008,62.9928
1372087589008,63.0596
1372087649008,62.9701
1372087709008,62.8697
1372087769008,63.0469
1372087829008,63.1158
1372087889008,62.8653
1372087949008,62.8779
1372088009008,62.9676
1372088069008,62.8153
1372088129008,62.9394
1372088189008,62.9760
1372088249008,63.0691
1372088309008,62.9136
1372088369008,63.1064
1372088429008,63.0871
1372088489008,62.9398
1372088549008,62.9523
1372088609008,62.8609
1372088669008,63.1560
1372088729008,62.7954
1372088789008,62.8754
1372088849008,63.0214
1372088909008,62.9730
1372088969008,63.0428
1372089029008,62.9062
1372089089008,62.9532
1372089149008,62.7481
1372089209008,63.1593
1372089269008,63.1112
1372089329008,62.8617
1372089389008,63.0506
1372089449008,63.0201
1372089509008,62.9245
1372089569008,62.9331
1372089629018,63.0775
1372089689018,62.8959
1372089749018,62.9918
1372089809018,62.7609
1372089869018,62.9269
1372089929017,63.0582
1372089989017,63.0055
1372090049017,62.8852
1372090109017,63.1440
1372090169017,62.8793
1372090229018,62.9544
1372090289018,63.0201
1372090349018,62.9391
1372090409018,62.9291
1372090469018,62.9716
1372090529018,63.0056
1372090589018,63.1718
1372090649018,62.8587
1372090709018,63.1244
1372090769018,63.1034
1372090829018,62.9888
1372090889018,63.2088
1372090949018,62.9795
1372091009018,63.2112
1372091069018,63.0562
1372091129018,63.2178
1372091189018,63.2330
1372091249017,63.1838
1372091309017,63.1760
1372091369017,63.3049
1372091429017,63.2109
1372091489017,63.2345
1372091549017,63.1887
1372091609018,63.3571
1372091669018,63.1868
1372091729018,63.2118
1372091789018,63.1581
1372091849018,63.1810
1372091909018,63.1101
1372091969018,63.2027
1372092029018,63.0401
1372092089018,63.3737
1372092149018,63.3046
1372092209018,63.1197
1372092269018,63.1753
1372092329018,63.3720
1372092389018,63.2810
1372092449018,63.2907
1372092509018,63.0583
1372092569018,63.0673
1372092629017,63.1026
1372092689017,63.2139
1372092749017,63.0885
1372092809017,63.6042
1372092869017,63.2641
1372092929018,63.2863
1372092989018,63.3660
1372093049018,63.3888
1372093109018,63.2986
1372093169018,63.1573
1372093229027,63.4337
1372093289027,63.2720
1372093349027,63.2694
1372093409027,63.1870
1372093469027,63.4487
1372093529027,63.2444
1372093589027,63.1418
1372093649027,63.2347
1372093709027,63.0601
1372093769027,62.9277
1372093829027,63.2005
1372093889027,63.0486
1372093949027,63.1563
1372094009027,63.2302
1372094069027,63.2135
1372094129027,62.9629
1372094189027,63.1257
1372094249027,63.1676
1372094309027,62.9639
1372094369027,63.2640
1372094429027,62.9639
1372094489027,63.1549
1372094549027,63.1192
1372094609027,62.9527
1372094669027,63.1842
1372094729027,63.2247
1372094789027,63.0749
1372094849027,63.1773
1372094909027,62.9812
1372094969027,62.9243
1372095029027,63.1011
1372095089027,63.1319
1372095149027,63.1394
1372095209027,63.1864
1372095269027,63.1452
1372095329027,63.2027
1372095389027,63.1475
1372095449027,62.9676
1372095509027,63.0834
1372095569027,62.8836
1372095629027,62.9714
1372095689027,62.9464
1372095749027,63.1566
1372095809027,63.0098
1372095869027,63.0711
1372095929027,62.8816
1372095989027,63.0845
1372096049027,62.8967
1372096109027,63.0371
1372096169027,62.8480
1372096229027,63.0347
1372096289027,63.1296
1372096349027,63.2222
1372096409027,62.8475
1372096469027,63.1088
1372096529027,63.0452
1372096589027,62.9584
1372096649027,62.9744
1372096709027,62.8856
1372096769027,62.8397
1372096829037,62.9269
1372096889037,63.0096
1372096949037,62.8229
1372097009037,62.7171
1372097069037,62.8172
1372097129037,62.9492
1372097189037,62.7304
1372097249037,62.8765
1372097309037,62.6126
1372097369037,62.9626
1372097429037,62.6644
1372097489037,62.5438
1372097549037,62.7561
1372097609037,62.6937
1372097669037,62.8655
1372097729037,62.8629
1372097789037,62.7315
1372097849037,62.7185